Waterloo Municipal Airport
Tuesday 11:54 PM
Temperature56° (79°/50°)
Dew Point49°
Relative Humidity77
%
Visibility10
mi
Pressure1019.3
mb
Wind Direction
Wind SpeedCalm
Precipitation Today0.00"

Terminal Aerodrome Forecast

325 
FTUS43 KDMX 050520
TAFALO
TAF
KALO 050520Z 0506/0606 19009KT P6SM SCT050=

Last 30 Observations

Time PresWx Temp DP Feels RH% Vsby Pressure Ceiling Direction Speed 1h Precip
11:54 PM 56° 49° 77
%
10
mi
1019.3
mb
Calm 0.00"
10:54 PM 61° 53° 75
%
10
mi
1019.3
mb
Calm 0.00"
9:54 PM 61° 52° 72
%
10
mi
1019.0
mb
NW
320°
3
mph
0.00"
8:54 PM 66° 50° 56
%
10
mi
1018.6
mb
Calm 0.00"
7:54 PM 74° 48° 73°40
%
10
mi
1018.3
mb
Calm 0.00"
6:54 PM 76° 47° 75°36
%
10
mi
1018.6
mb
Calm 0.00"
5:54 PM 77° 48° 76°36
%
10
mi
1019.0
mb
Variable 3
mph
0.00"
4:54 PM 76° 47° 75°36
%
10
mi
1019.3
mb
N
350°
7
mph
0.00"
3:54 PM 77° 47° 76°35
%
10
mi
1020.0
mb
NNW
330°
5
mph
0.00"
2:54 PM 76° 49° 75°39
%
10
mi
1020.3
mb
7,000
ft
Variable 3
mph
0.00"
1:54 PM 74° 48° 73°40
%
10
mi
1020.7
mb
Variable 3
mph
0.00"
12:54 PM 75° 48° 74°38
%
10
mi
1020.7
mb
Variable 6
mph
0.00"
11:54 AM 73° 48° 72°41
%
10
mi
1021.0
mb
Variable 5
mph
0.00"
10:54 AM 71° 50° 70°47
%
10
mi
1021.7
mb
Calm 0.00"
9:54 AM 68° 51° 55
%
10
mi
1021.7
mb
Calm 0.00"
8:54 AM 63° 51° 65
%
10
mi
1021.3
mb
N
350°
5
mph
0.00"
7:54 AM 57° 50° 77
%
10
mi
1020.7
mb
Calm 0.00"
6:54 AM 52° 47° 83
%
10
mi
1020.7
mb
NW
320°
3
mph
0.00"
5:54 AM 51° 46° 83
%
10
mi
1020.7
mb
WNW
300°
3
mph
0.00"
4:54 AM 51° 47° 86
%
10
mi
1020.3
mb
NW
320°
3
mph
0.00"
3:54 AM 53° 48° 83
%
10
mi
1020.3
mb
6,000
ft
WNW
290°
3
mph
0.00"
2:54 AM 52° 47° 83
%
10
mi
1020.7
mb
Calm 0.00"
1:54 AM 51° 46° 83
%
10
mi
1020.7
mb
Calm 0.00"
12:54 AM 53° 48° 83
%
10
mi
1021.0
mb
NW
310°
3
mph
0.00"
11:54 PM 54° 47° 77
%
10
mi
1020.7
mb
NW
310°
3
mph
0.00"
10:54 PM 55° 47° 74
%
10
mi
1020.3
mb
Calm 0.00"
9:54 PM 56° 49° 77
%
10
mi
1020.0
mb
NNW
340°
3
mph
0.00"
8:54 PM 61° 49° 64
%
10
mi
1019.7
mb
N
10°
3
mph
0.00"
7:54 PM 66° 49° 54
%
10
mi
1019.7
mb
NNE
30°
7
mph
0.00"
6:54 PM 70° 49° 47
%
10
mi
1019.3
mb
NE
40°
15
mph
0.00"